www.pogodaiklimat.ru

Погода и климат >> Архив погоды >> Россия >> Якутия >> Усть-Нера


ПОГОДА в Усть-Нере

  • Прогноз погоды в Усть-Нере
  • Монитор погоды в Усть-Нере
  • Климат города

АРХИВ ПОГОДЫ в Усть-Нере

Время (UTC), дата Ветер
(напр.,м/с)
 
Видим.   Явления Облачность Т
(С)
Тd
(С)
f
(%)
Тe
(С)
Тes
(С)
Комфортность P
(гПа)
Po
(гПа)
Тmin
(С)
Tmax
(С)
R
(мм)
R24
(мм)
S
(см)
00 16.07 СВ 4
{11}
50 км 10/4 1500 м
[Cb cap Ac trans Ci fib]
+18.8 +5.3 41 +19 +21 1008.8 949.7
03 16.07 СВ 2 50 км 8/8 1500 м
[Cb cap]
+22.4 +8.5 41 +24 +26 комфорт 1006.1 948.0
06 16.07 СВ 1 50 км 10/8 1500 м
[Cb cap Ci fib]
+24.9 +8.4 35 +25 +27 комфорт 1003.7 946.2
09 16.07 СВ 4 50 км 10/8 1500 м
[Cb cap Ac und]
+23.0 +7.0 36 +24 +24 комфорт 1003.7 945.7 +26.6
12 16.07 В 2 50 км 10/6 1500 м
[Sc Ac und]
+19.2 +9.8 54 +21 +21 комфорт 1003.8 945.1
15 16.07 штиль 0 20 км 10/3 1500 м
[Cb cap Ac und]
+17.3 +9.3 59 +17 +17 1003.7 944.6
18 16.07 С 2 10 км слабый ливневой дождь 10/10 1470 м
[Cb cap]
+13.9 +10.3 79 +13 +13 1005.7 945.9
21 16.07 В 4 20 км 10/10 1380 м
[Cb cap]
+11.7 +11.3 97 +9 +9 1005.2 945.1 +10.8 6
00 17.07 СВ 3 10 км слабый ливневой дождь 10/10 1320 м
[Cb cap]
+12.4 +12.0 97 +11 +11 1004.6 944.6
03 17.07 В 3 10 км слабый ливневой дождь 10/10 1320 м
[Cb cap]
+12.1 +11.3 95 +10 +10 1003.5 943.5
06 17.07 В 4 20 км {ливн. осадки} 10/10 1320 м
[Cb cap]
+12.6 +10.5 87 +11 +11 1001.8 942.0
09 17.07 СВ 3 20 км 10/10 1320 м
[Cb cap]
+12.8 +10.1 84 +11 +11 1001.4 941.6 +13.7 0.3
12 17.07 СВ 2 20 км {ливн. осадки} 10/10 1320 м
[Cb cap]
+10.9 +8.9 87 +10 +10 1001.6 941.4
15 17.07 СВ 2 20 км {ливн. осадки} 10/10 1260 м
[Cb cap]
+10.2 +8.4 89 +9 +9 1001.2 940.9
18 17.07 В 5 20 км {ливн. осадки} 10/10 1320 м
[Cb cap]
+10.4 +7.0 79 +7 +7 1001.2 940.9
21 17.07 В 6
{10}
20 км 10/10 1320 м
[Cb cap]
+11.1 +7.8 80 +8 +8 1001.0 940.9 +9.7 0.4
00 18.07 В 5
{10}
20 км {ливн. осадки} 10/10 1410 м
[Cb cap]
+11.3 +7.6 78 +9 +9 990.2 940.2
03 18.07 В 5
{11}
20 км 10/10 1440 м
[Cb cap]
+12.8 +7.3 69 +11 +11 998.9 939.3
06 18.07 В 4 20 км в посл. час ливневой дождь 10/10 1410 м
[Cb cap]
+12.3 +8.7 79 +10 +10 998.6 938.9
09 18.07 В 5
{11}
50 км 10/10 1410 м
[Cb cap]
+12.9 +8.3 74 +11 +11 998.7 939.1 +14.3 2
12 18.07 В 5
{11}
50 км {ливн. осадки} 10/10 1470 м
[Cb cap]
+10.5 +8.3 86 +8 +8 1000.4 940.3
15 18.07 В 3 50 км 10/10 1470 м
[Cb cap]
+10.1 +7.8 86 +8 +8 1000.6 940.4
18 18.07 В 5 50 км 10/8 1500 м
[Sc Ac As]
+9.8 +6.8 82 +7 +7 1000.7 940.4
21 18.07 В 5 50 км 10/5 1500 м
[Sc Ac As]
+10.6 +7.3 80 +8 +8 1000.5 940.4 +9.6 2
00 19.07 СВ 5
{10}
50 км 10/3 1500 м
[Cb cap Ac und]
+13.3 +7.1 66 +11 +12 999.7 940.1
03 19.07 В 5 50 км 10/6 1500 м
[Sc Ac und]
+14.3 +6.7 60 +13 +13 999.2 939.8
06 19.07 СВ 4 20 км слабый ливневой дождь 10/8 1410 м
[Cb cap Ac und]
+11.6 +10.6 94 +9 +10 1000.2 940.3
09 19.07 В 2 20 км слабый ливневой дождь 10/10 1380 м
[Cb cap]
+11.5 +10.5 94 +10 +10 1000.9 940.9 +14.6 5
12 19.07 СВ 2 20 км слабый ливневой дождь 10/10 1110 м
[Cb cap]
+10.8 +10.2 96 +9 +9 1001.5 941.4
15 19.07 СВ 2 20 км слабый ливневой дождь 10/10 1110 м
[Cb cap]
+10.6 +10.2 97 +9 +9 1001.6 941.4
18 19.07 СВ 2 20 км слабый ливневой дождь 10/10 1110 м
[Cb cap]
+10.7 +10.3 97 +9 +9 1001.1 941.0
21 19.07 В 3 10 км слабый ливневой дождь 10/10 1320 м
[Cb cap]
+11.2 +10.8 97 +9 +9 1001.4 941.4 +10.5 6
00 20.07 СВ 2 20 км слабый ливневой дождь 10/10 1320 м
[Cb cap]
+12.0 +11.0 94 +11 +11 1001.3 941.4
03 20.07 СВ 2 20 км {ливн. осадки} 10/10 1410 м
[Cb cap]
+13.1 +11.4 89 +12 +12 1001.2 941.6
06 20.07 С 1 10 км слабый ливневой дождь 10/10 1320 м
[Cb cap]
+13.2 +12.1 93 +13 +13 1001.7 942.1
09 20.07 ЮЗ 1 10 км слабый ливневой дождь 10/10 1380 м
[Cb cap]
+10.0 +9.6 97 +9 +9 1004.4 943.9 +13.7 5
12 20.07 СВ 1 10 км слабый дождь {ливн. осадки} 10/10 1320 м
[Sc]
+9.2 +8.8 97 +8 +8 1005.6 944.8
15 20.07 В 3 4000 м слабый дождь 10/10 1320 м
[Sc]
+9.0 +8.6 97 +6 +6 1005.8 945.0
18 20.07 СВ 4 4000 м слабый дождь 10/10 1320 м
[Sc]
+8.6 +8.0 96 +5 +5 1006.6 945.6
21 20.07 В 4 10 км слабый дождь 10/10 1320 м
[Sc]
+8.4 +7.1 92 +5 +5 1007.0 945.9 +8.2 9
00 21.07 В 5
{11}
10 км слабый дождь 10/10 1320 м
[Sc]
+8.7 +7.6 93 +5 +5 1007.3 946.3
03 21.07 В 4
{12}
10 км слабый дождь 10/5 1000 м
[Sc As op]
+8.9 +7.9 93 +6 +7 1007.1 946.1
06 21.07 В 4
{11}
10 км слабый дождь 10/10 1320 м
[Frnb Ns]
+8.3 +7.5 95 +5 +5 1007.5 946.4
09 21.07 В 4 10 км слабый дождь 10/10 1260 м
[Frnb Ns]
+7.5 +6.6 94 +4 +4 1007.9 946.6 +9.2 7
12 21.07 В 4
{10}
10 км слабый дождь 10/10 1230 м
[Frnb Ns]
+6.8 +5.7 93 +3 +3 1008.3 946.8
15 21.07 В 3
{10}
10 км слабый дождь 10/10 1200 м
[Frnb Ns]
+5.8 +4.9 94 +2 +2 1008.6 946.9
18 21.07 СВ 3 50 км {дождь} 8/8 1300 м
[Frnb]
+5.3 +4.1 92 +2 +2 1008.7 946.8
21 21.07 СВ 3 50 км 6/6 1500 м
[Frnb]
+7.9 +3.2 72 +5 +6 1007.8 946.6 +5.1 5
00 22.07 ЮВ 2 50 км 8/8 1500 м
[Frnb]
+9.4 +3.7 68 +8 +10 1006.8 946.0
03 22.07 В 3 50 км 6/6 1500 м
[Cu hum]
+12.5 +5.4 62 +11 +15 1005.0 944.9
06 22.07 В 4 50 км 4/4 1500 м
[Cu hum]
+14.9 +5.2 52 +14 +17 1003.2 943.7
09 22.07 В 3 50 км 4/4 1500 м
[Sc]
+13.1 +4.4 56 +12 +13 1002.8 942.9 +15.4
12 22.07 В 2 50 км 4/4 1500 м
[Sc]
+11.3 +3.1 57 +10 +10 1002.5 942.4
15 22.07 В 3 20 км 4/4 1500 м
[Sc]
+8.8 +2.9 66 +7 +7 1001.4 940.8
18 22.07 В 5
{12}
50 км 6/3 1500 м
[Sc Ac trans]
+9.0 +3.2 67 +6 +6 1000.8 940.2
21 22.07 В 5 50 км слабый дождь 10/10 1500 м
[Sc]
+7.3 +4.8 84 +3 +3 999.4 938.6 +7.2 2

 

Местоположение метеостанции Усть-Нера (Якутия, Россия): широта 64.53 долгота 143.10 высота над уровнем моря 519 м.

В архиве по умолчанию представлена погода в Усть-Нере за последнюю неделю. Архивные данные за месяц целиком и за предыдущие месяцы, начиная с января 2011 года, Вы можете получить, выбрав интересующий диапазон дат из раскрывающегося списка и нажав кнопку "Ввод!".

Внимание! Время в таблицах - всемирное. Для получения местного времени необходимо прибавить поправку, которая в Усть-Нере равна 10 ч.

Смотрите также архив погоды в соседних городах и на ближайших метеорологических станциях:

Погода в Юртах (Якутия, Россия) (82 км)
Погода в Оймяконе (Якутия, Россия) (142 км)
Погода в Делянкире (Якутия, Россия) (144 км)
Погода в Агаякане (Якутия, Россия) (150 км)
Погода в Усть-Моме (Якутия, Россия) (214 км)
Погода в Восточной (Якутия, Россия) (224 км)
Погода в Сусумане (Магаданская область, Россия) (314 км)
Погода в Иэме (Якутия, Россия) (355 км)
Погода в Томпо (Якутия, Россия) (359 км)
Погода в Теплом Ключе (Якутия, Россия) (367 км)

Пояснения к столбцам:

Ветер - указаны скорость ветра в м/с - средняя за 10 мин, порывы в срок и между сроками (в фигурных скобках) и направление, откуда дует ветер: С - северный, СВ - северо-восточный, В - восточный, ЮВ - юго-восточный, Ю - южный, ЮЗ - юго-западный, З - западный, СЗ - северо-западный.
Видимость - горизонтальная дальность видимости в метрах или километрах. При видимости от 1 до 10 км при отсутствии осадков обычно наблюдается дымка, при ухудшении видимости до 1 км и менее - туман. В сухую погоду видимость может ухудшаться дымом, пылью или мглою.
Явления - указаны атмосферные явления, наблюдавшиеся в срок или в последний час перед сроком; фигурными скобками обозначены явления, наблюдавшиеся между сроками (за 1-3 часа до срока); квадратными скобками обозначены град или гололедные отложения с указанием их диаметра в мм.
Облачность - указаны через наклонную черту общая и нижняя облачность в баллах и высота нижней границы облаков в метрах; квадратными скобками обозначены формы облаков: Ci - перистые, Cs - перисто-слоистые, Cc - перисто-кучевые, Ac - высококучевые, As - высокослоистые, Sc - слоисто-кучевые, Ns - слоисто-дождевые, Cu - кучевые, Cb - кучево-дождевые. Подробнее классификацию облаков см. в Атласе облаков (PDF).
T - Температура воздуха - температура, измеренная на высоте 2 м над землей.
Td - Температура точки росы - температура, при понижении до которой содержащийся в воздухе водяной пар достигнет насыщения.
f - Относительная влажность воздуха - влажноcть воздуха, измеренная на высоте 2 м над землей.
Te - Эффективная температура - температура, которую ощущает одетый по сезону человек в тени. Характеристика душности погоды. При расчете учитывается влияние влажности воздуха и скорости ветра на теплоощущения человека.
Tes - Эффективная температура на солнце - температура, которую ощущает человек, с поправкой на солнечный нагрев. Характеристика знойности погоды. Зависит от высоты солнца над горизонтом, облачности и скорости ветра. Ночью, в пасмурную погоду, а также при ветре 12 м/с и более поправка равна нулю.
P - Атмосферное давление - приведенное к уровню моря атмосферное давление.
Po - Атмосферное давление - измеренное на уровне метеостанции атмосферное давление.
Tmin - Минимальная температура - минимум температуры воздуха на высоте 2 м над землей.
Tmax - Максимальная температура - максимум температуры воздуха на высоте 2 м над землей.
R - Количество осадков - Количество выпавших осадков за период времени, мм. При наведении курсора мыши на число - период времени, за который выпало указанное количество осадков.
R24 - Количество осадков - Количество выпавших осадков за 24 часа, мм.
S - Снежный покров - Высота снежного покрова, см. При наведении курсора мыши на число - состояние снежного покрова и степень покрытия местности в баллах.